AirNav   Pilot Hours Calculator
 
 845 users online  

CA84 Torrey Pines Gliderport
San Diego, California, USA

GOING TO SAN DIEGO?


FAA INFORMATION EFFECTIVE 28 FEBRUARY 2019

Location

FAA Identifier: CA84
Lat/Long: 32-53-23.0000N / 117-14-49.0000W
32-53.383333N / 117-14.816667W
32.8897222 / -117.2469444
(estimated)
Elevation: 372 ft. / 113 m (estimated)
Variation: 13E (1985)
From city: 11 miles NW of SAN DIEGO, CA
Time zone: UTC -8 (UTC -7 during Daylight Saving Time)
Zip code: 92037

Gliderport Operations

Gliderport use: Private use. Permission required prior to landing
Activation date: 11/1961
Control tower: no
ARTCC: LOS ANGELES CENTER
FSS: SAN DIEGO FLIGHT SERVICE STATION
Attendance: UNATNDD
Wind indicator: no
Segmented circle: no

Gliderport Communications

WX ASOS at MYF (7 nm SE): 126.9 (858-576-4337)
WX ASOS at SAN (10 nm S): PHONE 619-296-8934
WX AWOS-3P at SEE (14 nm E): 125.45 (619-449-1228)
WX ASOS at CRQ (14 nm N): PHONE 760-930-0864
WX ASOS at RNM (19 nm NE): 132.025 (760-789-0736)

Nearby radio navigation aids

VOR radial/distance  VOR name  Freq  Var
MZBr335/6.5MISSION BAY VORTAC117.8015E
PGYr307/21.5POGGI VORTAC109.8014E
OCNr143/22.7OCEANSIDE VORTAC115.3015E
TIJr311/25.7TIJUANA VOR/DME116.5014E
JLIr231/36.5JULIAN VORTAC114.0015E

Gliderport Services

Airframe service: NONE
Powerplant service: NONE

Runway Information

Runway 9/27

Dimensions: 1500 x 30 ft. / 457 x 9 m
Surface: asphalt
RUNWAY 9  RUNWAY 27
Traffic pattern: leftleft
Obstructions: nonetrees, 100 ft. from runway

Gliderport Ownership and Management from official FAA records

Ownership: Publicly-owned
Owner: CITY OF SAN DIEGO
Manager: JIM FROST
4740 HARBINSON AVE
LA MESA, CA 91941
Phone 619-461-9614
WORK PHONE 619-535-9505 EXT 1585

Additional Remarks

GLIDER PORT IS LEASED FM CITY TO THE ASSOCD GLIDER CLUB OF SOUTHERN CALIF FOR STUDENT TRAINING & RIDGE SOARING.
ALL ACFT ARE TRAILERED GLIDERS.
ROLLING RWY .6 PERCENT GRADIENT.
EXTENSIVE HANG GLIDER OPERATIONS ON WEEKENDS AND WEEKDAYS.

Instrument Procedures

There are no published instrument procedures at CA84.

Some nearby airports with instrument procedures:

KNKX - Miramar MCAS (Joe Foss Field) Airport (5 nm E)
KMYF - Montgomery-Gibbs Executive Airport (7 nm SE)
KSAN - San Diego International Airport (10 nm S)
KNZY - North Island Naval Air Station (Halsey Field) (12 nm S)
KSEE - Gillespie Field Airport (14 nm E)
KCRQ - Mc Clellan-Palomar Airport (14 nm N)
KRNM - Ramona Airport (19 nm NE)
 
Loc | Ops | Rwys | IFR | FBO | Links
Com | Nav | Svcs | Stats | Notes
Area around CA84 (Torrey Pines Gliderport)
 
Road maps at: MapQuest Bing Google
 
Aerial photo
WARNING: Photo may not be current or correct
Aerial photo of CA84 (Torrey Pines Gliderport)
Photo by Doug Fronius
Photo taken 13-Mar-2004
from a 1942 Schweizer TG-2 sailplane.

Do you have a better or more recent aerial photo of Torrey Pines Gliderport that you would like to share? If so, please send us your photo.

 
Sectional chart

 
Airport distance calculator
Flying to Torrey Pines Gliderport? Find the distance to fly.

From to CA84

Sunrise and sunset
Times for 22-Mar-2019
 Local
(UTC-7)
 Zulu
(UTC)
Morning civil twilight06:2613:26
Sunrise06:5113:51
Sunset19:0102:01
Evening civil twilight19:2502:25

Current date and time
Zulu (UTC)  23-Mar-2019 01:33:21
Local (UTC-7)  22-Mar-2019 18:33:21
 
METAR
KNKX 
6nm E 
230055Z 31007KT 10SM CLR 17/10 A3012 RMK AO2 SLP197 T01720100
KMYF 
7nm SE 
230053Z 29009KT 10SM CLR 16/08 A3013 RMK AO2 SLP201 T01560083
KSAN 
10nm S 
230051Z 30007KT 10SM FEW015 FEW026 BKN250 17/09 A3015 RMK AO2 SLP208 FU FEW015 T01670094
KNZY 
11nm S 
230052Z 32011KT 10SM FEW025 SCT250 19/11 A3013 RMK AO2 SLP201 T01940106
KCRQ 
15nm N 
230053Z 28006KT 10SM CLR 16/10 A3012 RMK AO2 SLP199 T01560100
KSEE 
15nm E 
230047Z 27010KT 10SM SKC 15/09 A3013
KRNM 
19nm NE 
230053Z 28009KT 10SM FEW030 14/09 A3011 RMK AO2 SLP196 T01390089
TAF
KNKX 
6nm E 
2221/2321 30009KT 9999 FEW015 SCT030 SCT200 QNH3011INS BECMG 2303/2305 VRB05KT 9999 SCT015 QNH3015INS BECMG 2317/2319 29008KT 9999 FEW015 SCT200 QNH3012INS T18/2221Z T11/2313Z
KSAN 
10nm S 
222032Z 2221/2324 29008KT P6SM FEW025 SCT250 FM230200 VRB04KT P6SM SCT025 SCT250 FM230800 VRB04KT P6SM BKN025 FM231900 29008KT P6SM SCT025 BKN035
KNZY 
11nm S 
2223/2323 29011KT 9999 FEW025 SCT250 QNH3009INS FM230200 VRB06KT 9999 SCT025 BKN200 QNH3011INS TEMPO 2310/2316 BKN020 FM232000 29011KT SCT020 SCT080 BKN180 QNH3006INS T11/2312Z T21/2321Z FS30022
KCRQ 
15nm N 
221720Z 2218/2318 VRB04KT P6SM SCT012 FM222000 25008KT P6SM FEW020 FM230000 VRB04KT P6SM SCT020 FM230700 VRB04KT P6SM BKN015
NOTAMs
Click for the latest NOTAMs
NOTAMs are issued by the DoD/FAA and will open in a separate window not controlled by AirNav.

 

 
 

Would you like to see your business listed on this page?

 If your business provides an interesting product or service to pilots, flight crews, aircraft, or users of the Torrey Pines Gliderport, you should consider listing it here.  To start the listing process, click on the button below
 
Add a business
 

Other Pages about Torrey Pines Gliderport

www.agcsc.org/torrey_pines_info.html
 
Update a link
 
Copyright © AirNav, LLC. All rights reserved. Privacy Policy  Contact